Allentown, PA

9:26 PM EST on December 06, 2019 (GMT -0500)
Allentown

Weather History for KXLL - November, 2019

Change the Weather History Date:

Tuesday, November 12, 2019

  Actual Average (WUND) Record (WUND)
Temperature  
Mean Temperature 38 °F -  
Max Temperature 53 °F - - (-1)
Min Temperature 23 °F - - (-1)
Degree Days  
Heating Degree Days 27    
Moisture  
Dew Point 27 °F    
Average Humidity 69    
Maximum Humidity 93    
Minimum Humidity 43    
Precipitation  
Precipitation 0.13 in - - ()
Sea Level Pressure  
Sea Level Pressure 29.96 in    
Wind  
Wind Speed 8 mph ()    
Max Wind Speed 18 mph    
Max Gust Speed 28 mph    
Visibility 9.9 miles    
Events Rain    
Averages and records for this station are not official NWS values.
T = Trace of Precipitation, MM = Missing Value Source: Averaged Metar Reports

Daily Weather History Graph

Daily Weather History Graph

Search for Another Location

Airport or City:

Astronomy

Nov. 12, 2019 Rise Set
Actual Time 6:44 AM EST 4:47 PM EST
Civil Twilight 6:15 AM EST 5:16 PM EST
Nautical Twilight 5:42 AM EST 5:48 PM EST
Astronomical Twilight 5:10 AM EST 6:21 PM EST
Moon 5:12 PM EST (11/12) 6:33 AM EST (11/12)
Length of Visible Light 11h 00m
Length of Day
10h 02m
Full, 100% of the Moon is Illuminated
Nov 12
Full
Nov 19
Last Quarter
Nov 26
New
Dec 4
First Quarter
Dec 12
Full

Hourly Weather History & Observations

Time (EST) Temp. Windchill Dew Point Humidity Pressure Visibility Wind Dir Wind Speed Gust Speed Precip Events Conditions
12:15 AM 53.6 °F - 44.6 °F 72% 29.76 in 10.0 mi SSW 5.8 mph - N/A   Clear
12:35 AM 53.6 °F - 44.6 °F 72% 29.75 in 10.0 mi South 5.8 mph - N/A   Clear
12:55 AM 53.6 °F - 44.6 °F 72% 29.75 in 10.0 mi South 5.8 mph - N/A   Clear
1:15 AM 53.6 °F - 44.6 °F 72% 29.75 in 10.0 mi SSW 4.6 mph - N/A   Clear
1:35 AM 53.6 °F - 44.6 °F 72% 29.73 in 10.0 mi South 5.8 mph - N/A   Clear
1:55 AM 53.6 °F - 44.6 °F 72% 29.71 in 10.0 mi Calm Calm - N/A   Scattered Clouds
2:15 AM 53.6 °F - 44.6 °F 72% 29.73 in 10.0 mi SSW 6.9 mph - N/A   Clear
2:35 AM 51.8 °F - 44.6 °F 76% 29.72 in 10.0 mi SSW 4.6 mph - N/A   Clear
2:55 AM 51.8 °F - 42.8 °F 71% 29.71 in 10.0 mi South 4.6 mph - N/A   Mostly Cloudy
3:15 AM 51.8 °F - 44.6 °F 76% 29.71 in 10.0 mi Calm Calm - N/A   Scattered Clouds
3:35 AM 50.0 °F - 44.6 °F 82% 29.70 in 10.0 mi Calm Calm - N/A   Mostly Cloudy
3:55 AM 53.6 °F - 42.8 °F 67% 29.71 in 10.0 mi SSW 4.6 mph - N/A Rain Light Rain
4:15 AM 53.6 °F - 44.6 °F 72% 29.73 in 10.0 mi WSW 3.5 mph - N/A Rain Light Rain
4:35 AM 51.8 °F - 46.4 °F 82% 29.72 in 10.0 mi West 5.8 mph - N/A Rain Light Rain
4:55 AM 50.0 °F - 46.4 °F 87% 29.73 in 10.0 mi WSW 5.8 mph - N/A Rain Rain
5:15 AM 50.0 °F - 46.4 °F 87% 29.73 in 10.0 mi WSW 5.8 mph - N/A Rain Light Rain
5:55 AM 50.0 °F - 46.4 °F 87% 29.75 in 7.0 mi WSW 5.8 mph - N/A Rain Rain
6:15 AM 48.2 °F - 46.4 °F 93% 29.77 in 7.0 mi WNW 9.2 mph 17.3 mph N/A Rain Rain
6:35 AM 46.4 °F 40.7 °F 42.8 °F 87% 29.79 in 7.0 mi WNW 12.7 mph 19.6 mph N/A Rain Rain
6:55 AM 42.8 °F 38.0 °F 41.0 °F 93% 29.81 in 10.0 mi WNW 8.1 mph 16.1 mph 0.01 in Rain Light Rain
7:15 AM 39.2 °F 30.8 °F 35.6 °F 87% 29.84 in 10.0 mi NW 15.0 mph 21.9 mph N/A Rain Light Rain
7:35 AM 37.4 °F 29.3 °F 33.8 °F 87% 29.86 in 10.0 mi NNW 12.7 mph 17.3 mph N/A Rain Light Rain
7:55 AM 35.6 °F 27.5 °F 32.0 °F 87% 29.87 in 10.0 mi NW 11.5 mph - 0.02 in   Overcast
8:15 AM 35.6 °F 29.2 °F 32.0 °F 87% 29.88 in 10.0 mi NW 8.1 mph 16.1 mph N/A   Overcast
8:35 AM 33.8 °F 26.4 °F 30.2 °F 87% 29.89 in 10.0 mi NW 9.2 mph 18.4 mph 0.02 in   Mostly Cloudy
8:55 AM 33.8 °F 24.8 °F 30.2 °F 87% 29.91 in 10.0 mi NW 12.7 mph 19.6 mph 0.04 in   Overcast
9:15 AM 33.8 °F 22.8 °F 28.4 °F 81% 29.92 in 10.0 mi NNW 18.4 mph 27.6 mph N/A   Mostly Cloudy
9:35 AM 33.8 °F 25.3 °F 28.4 °F 81% 29.93 in 10.0 mi NW 11.5 mph 18.4 mph 0.02 in   Overcast
9:55 AM 33.8 °F 24.8 °F 28.4 °F 81% 29.94 in 10.0 mi NW 12.7 mph 23.0 mph 0.02 in   Overcast
10:15 AM 33.8 °F 23.9 °F 26.6 °F 75% 29.96 in 10.0 mi NW 15.0 mph 20.7 mph 0.02 in   Overcast
10:35 AM 33.8 °F 23.9 °F 26.6 °F 75% 29.97 in 10.0 mi NNW 15.0 mph 21.9 mph 0.02 in   Overcast
10:55 AM 33.8 °F 23.9 °F 26.6 °F 75% 29.97 in 10.0 mi NNW 15.0 mph 20.7 mph 0.02 in   Overcast
11:15 AM 33.8 °F 23.9 °F 26.6 °F 75% 29.97 in 10.0 mi NW 15.0 mph 25.3 mph 0.02 in   Overcast
11:35 AM 33.8 °F 24.8 °F 26.6 °F 75% 29.98 in 10.0 mi NW 12.7 mph 21.9 mph 0.02 in   Mostly Cloudy
11:55 AM 33.8 °F 24.3 °F 26.6 °F 75% 29.99 in 10.0 mi NNW 13.8 mph 23.0 mph 0.02 in   Overcast
12:15 PM 33.8 °F 23.9 °F 26.6 °F 75% 30.00 in 10.0 mi NW 15.0 mph 26.5 mph N/A   Overcast
12:35 PM 33.8 °F 23.5 °F 24.8 °F 70% 29.99 in 10.0 mi NNW 16.1 mph 21.9 mph N/A   Overcast
12:55 PM 32.0 °F 22.5 °F 26.6 °F 80% 29.99 in 10.0 mi NW 12.7 mph 19.6 mph N/A   Overcast
1:15 PM 32.0 °F 23.0 °F 23.0 °F 69% 30.00 in 10.0 mi NNW 11.5 mph 20.7 mph N/A   Overcast
1:35 PM 32.0 °F 22.1 °F 23.0 °F 69% 30.00 in 10.0 mi NNW 13.8 mph 21.9 mph N/A   Mostly Cloudy
1:55 PM 32.0 °F 22.5 °F 23.0 °F 69% 30.00 in 10.0 mi NW 12.7 mph 20.7 mph N/A   Mostly Cloudy
2:15 PM 32.0 °F 23.0 °F 23.0 °F 69% 30.00 in 10.0 mi NW 11.5 mph 24.2 mph N/A   Scattered Clouds
2:35 PM 32.0 °F 21.6 °F 23.0 °F 69% 30.01 in 10.0 mi NW 15.0 mph 20.7 mph N/A   Mostly Cloudy
2:55 PM 32.0 °F 22.1 °F 23.0 °F 69% 30.02 in 10.0 mi NW 13.8 mph 21.9 mph N/A   Overcast
3:15 PM 33.8 °F 23.2 °F 21.2 °F 60% 30.03 in 10.0 mi NW 17.3 mph 20.7 mph N/A   Mostly Cloudy
3:35 PM 33.8 °F 23.9 °F 21.2 °F 60% 30.03 in 10.0 mi NW 15.0 mph 20.7 mph N/A   Scattered Clouds
3:55 PM 32.0 °F 21.2 °F 19.4 °F 60% 30.03 in 10.0 mi NNW 16.1 mph 24.2 mph N/A   Scattered Clouds
4:15 PM 32.0 °F 21.6 °F 19.4 °F 60% 30.04 in 10.0 mi NW 15.0 mph 24.2 mph N/A   Scattered Clouds
4:35 PM 32.0 °F 25.6 °F 19.4 °F 60% 30.06 in 10.0 mi NW 6.9 mph - N/A   Mostly Cloudy
4:55 PM 32.0 °F 23.0 °F 21.2 °F 64% 30.06 in 10.0 mi North 11.5 mph 17.3 mph N/A   Mostly Cloudy
5:15 PM 32.0 °F 23.6 °F 19.4 °F 60% 30.07 in 10.0 mi North 10.4 mph - N/A   Overcast
5:55 PM 32.0 °F 21.6 °F 17.6 °F 55% 30.10 in 10.0 mi North 15.0 mph 20.7 mph N/A   Scattered Clouds
6:15 PM 30.2 °F 20.8 °F 17.6 °F 60% 30.11 in 10.0 mi NNW 11.5 mph 21.9 mph N/A   Scattered Clouds
6:35 PM 30.2 °F 20.8 °F 17.6 °F 60% 30.13 in 10.0 mi NW 11.5 mph 17.3 mph N/A   Clear
6:55 PM 30.2 °F 18.1 °F 14.0 °F 51% 30.15 in 10.0 mi NNW 18.4 mph 26.5 mph N/A   Clear
7:15 PM 30.2 °F 21.3 °F 14.0 °F 51% 30.16 in 10.0 mi North 10.4 mph 23.0 mph N/A   Clear
7:35 PM 28.4 °F 16.6 °F 14.0 °F 55% 30.16 in 10.0 mi North 16.1 mph 21.9 mph N/A   Clear
7:55 PM 28.4 °F 18.0 °F 14.0 °F 55% 30.17 in 10.0 mi NNW 12.7 mph 20.7 mph N/A   Clear
8:15 PM 28.4 °F 18.5 °F 10.4 °F 47% 30.18 in 10.0 mi NNW 11.5 mph 18.4 mph N/A   Clear
8:35 PM 26.6 °F 16.8 °F 10.4 °F 51% 30.19 in 10.0 mi NW 10.4 mph - N/A   Clear
8:55 PM 26.6 °F 22.6 °F 10.4 °F 51% 30.20 in 10.0 mi NW 3.5 mph - N/A   Clear
9:15 PM 26.6 °F 19.1 °F 12.2 °F 55% 30.21 in 10.0 mi NW 6.9 mph - N/A   Clear
9:35 PM 26.6 °F 16.8 °F 10.4 °F 51% 30.22 in 10.0 mi NW 10.4 mph 17.3 mph N/A   Clear
9:55 PM 26.6 °F 18.2 °F 10.4 °F 51% 30.22 in 10.0 mi NW 8.1 mph - N/A   Clear
10:15 PM 26.6 °F 16.2 °F 8.6 °F 47% 30.22 in 10.0 mi NNW 11.5 mph 18.4 mph N/A   Clear
10:35 PM 26.6 °F 18.2 °F 6.8 °F 43% 30.23 in 10.0 mi NW 8.1 mph 17.3 mph N/A   Clear
10:55 PM 24.8 °F 20.5 °F 5.0 °F 43% 30.23 in 10.0 mi NW 3.5 mph - N/A   Clear
11:15 PM 23.0 °F 13.9 °F 5.0 °F 46% 30.23 in 10.0 mi NW 8.1 mph - N/A   Clear
11:35 PM 23.0 °F 14.7 °F 5.0 °F 46% 30.23 in 10.0 mi WNW 6.9 mph - N/A   Clear
11:55 PM 23.0 °F 15.8 °F 5.0 °F 46% 30.24 in 10.0 mi NW 5.8 mph - N/A   Clear